Weather in Khorostkiv

Ukraine / Ternopil District     49°12′40″N   25°55′03″E
temp.,
°C
wind,
m/s
gust,
m/s
humid.,
%
clouds,
%
prec.,
mm/h
press.,
hPa
HPBL,
m
18 may, wed
wed1800:00+8n51258100 0.0 1019486
03:00+4nnw410705 0.0 1020308
06:00+3nnw512760 0.0 1021405
09:00+7nnw7106483 0.0 10231077
12:00+10nnw91154100 0.0 10241714
15:00+11n71157100 0.0 10241767
18:00+11nnw61058100 0.0 10251634
21:00+8nnw367611 0.0 1026122
19 may, thu
thu1900:00+6nw49865 0.0 1028167
03:00+5nw36905 0.0 102998
06:00+4nw35925 0.0 102980
09:00+11nw45675 0.0 1029494
12:00+15nw45515 0.0 10281302
15:00+18nw45435 0.0 10271494
18:00+18nw4549100 0.0 10251304
21:00+12nw226833 0.0 102511
20 may, fri
fri2000:00+9w227544 0.0 102610
03:00+8w227527 0.0 102510
06:00+8wsw227470 0.0 102517
09:00+15wsw346093 0.0 1024280
12:00+20w4648100 0.0 1022937
15:00+20w5752100 0.0 10211155
18:00+20w695559 0.0 1019829
21:00+17w7146010 0.0 1018390
21 may, sat
sat2100:00+17w71557100 0.0 1017593
03:00+14w51477100 0.1 1014355
06:00+14w41273100 0.0 1014353
09:00+18w5966100 0.0 1012446
12:00+19wnw51066100 0.1 1011791
15:00+20w81475100 0.5 1010915
18:00+18wnw91588100 1.9 10091001
21:00+15nw61188100 2.6 1011663
22 may, sun
sun2200:00+11wnw513950 0.1 1011448
03:00+10w515885 0.1 1010464
06:00+11w8167968 0.0 10081258
09:00+10wnw101686100 0.5 10091292
12:00+10wnw91487100 0.1 10101032
15:00+10wnw81383100 0.4 10111193
18:00+10nw71282100 0.2 1011903
21:00+9wnw5989100 0.5 1011535